Location: ??????
(31.2056°N, 45.3906°E)
Time: 16:56:16
(UTC+00:00)

USA 234 - Pass Details

Date: 09 April 2020
Orbit: 1102 x 1106 km, 123.0° (Epoch: 14 May)

Event Time Altitude Azimuth Distance (km) Brightness Sun altitude
Rises 16:22:39 0° 52° (NE) 3,920 5.8 -13.2°
Reaches altitude 10° 16:25:24 10° 61° (ENE) 2,960 5.1 -13.7°
Maximum altitude 16:31:16 35° 125° (SE) 1,694 3.8 -14.9°
Drops below altitude 10° 16:37:07 10° 189° (S) 2,952 5.4 -16.1°
Sets 16:39:50 0° 198° (SSW) 3,907 6.1 -16.6°
